Location: Del Amo
(33.8464°N, 118.2104°W)
Time: 15:18:38
(UTC+00:00)

Tiros 1 despin weight - Pass Details

Date: 19 September 2024
Orbit: 573 x 615 km, 48.2° (Epoch: 04 October)

Event Time Altitude Azimuth Distance (km) Brightness Sun altitude
Exits shadow 12:26:05 - 320° (NW) 2,322 ? -15.9°
Reaches altitude 10° 12:27:39 10° 335° (NNW) 1,979 ? -15.6°
Maximum altitude 12:29:49 13° 3° (N) 1,782 ? -15.1°
Drops below altitude 10° 12:31:58 10° 32° (NNE) 1,981 ? -14.7°
Sets 12:35:30 0° 60° (ENE) 2,886 ? -14.0°
